Regional Weather Roundup
Issued by NWS

Home | Current Version | Previous Version | Graphics & Text | Print | Product List | Glossary On
Versions: 1 2 3 4 5 6 7 8 9 10 11 12 13 14 15 16 17 18 19 20 21 22 23 24 25 26 27 28 29 30 31 32 33 34 35 36 37 38 39 40 41 42 43 44 45 46 47 48 49 50
000
ASUS44 KMEG 241610
RWRTN
TENNESSEE HOURLY STATE WEATHER ROUNDUP
NATIONAL WEATHER SERVICE MEMPHIS TN
1100 AM CDT THU APR 24 2014

TNZ002-004-019-021-049-052-054-088>092-241700-
WEST TENNESSEE

CITY           SKY/WX    TMP DP  RH WIND       PRES   REMARKS
MEMPHIS INTL   CLOUDY    74  49  41 S13G21    29.89F
NWS MEMPHIS      N/A     74 N/A N/A MISG        N/A
JACKSON        PTSUNNY   74  42  31 S13       29.90F
DYERSBURG      MOSUNNY   72  43  35 S12       29.90F
UNION CITY     SUNNY     68  45  42 S13       29.88F
PARIS          MOSUNNY   69  42  37 SE7       29.92F
LEXINGTON      SUNNY     72  43  35 S9        29.92F
$$

TNZ008-025-027-028-033-062-065-066-241700-
NORTH MIDDLE TENNESSEE

CITY           SKY/WX    TMP DP  RH WIND       PRES   REMARKS
NASHVILLE      CLOUDY    72  38  29 S14       29.97F
DICKSON        SUNNY     72  36  26 S9        29.95F
PORTLAND         N/A     68  37  32 S7        29.97F
CLARKSVILLE    MOSUNNY   67  42  40 S6        29.94F
SMYRNA         SUNNY     71  45  39 S10       29.98F
MURFREESBORO   SUNNY     72  39  30 S12       29.97F
COOKEVILLE     SUNNY     72  39  30 SW12      29.99F
LIVINGSTON     SUNNY     71  31  23 SW9       30.00F
GALLATIN       SUNNY     66  43  43 VRB3      29.99F
CROSSVILLE     SUNNY     68  30  24 S8        30.04F
$$

TNZ061-075-076-078-094-096-097-241700-
SOUTH MIDDLE TENNESSEE

CITY           SKY/WX    TMP DP  RH WIND       PRES   REMARKS
LEWISBURG      SUNNY     72  43  35 S7        29.97F
FAYETTEVILLE   SUNNY     70  40  33 S13       29.99F
TULLAHOMA      SUNNY     70  34  26 S8        30.00F
WINCHESTER     SUNNY     72  37  28 S9        30.00F
MCMINNVILLE    SUNNY     73  37  27 S5        30.00F
COLUMBIA       SUNNY     73  55  53 S10       29.95F
SHELBYVILLE    SUNNY     72  43  35 S10       30.00F
$$

TNZ017-018-042-046-047-241700-
NORTHEAST TENNESSEE

CITY           SKY/WX    TMP DP  RH WIND       PRES   REMARKS
TRI CITIES     PTSUNNY   64  30  27 CALM      30.06F
ELIZABETHTON   SUNNY     64  30  27 CALM      30.05F
$$

TNZ012-013-036-069-073-074-241700-
CENTRAL EAST TENNESSEE

CITY           SKY/WX    TMP DP  RH WIND       PRES   REMARKS
KNOXVILLE      MOSUNNY   65  37  35 NE6       30.04S
OAK RIDGE      MOSUNNY   66  33  29 CALM      30.05F
$$

TNZ083-085-099-241700-
SOUTHEAST TENNESSEE

CITY           SKY/WX    TMP DP  RH WIND       PRES   REMARKS
CHATTANOOGA    MOSUNNY   68  38  33 VRB5      30.04F
$$

SKY/WX REPORTED AS FAIR MEANS FEW OR NO CLOUDS BELOW
12 THOUSAND FEET.




USA.gov is the U.S. government's official web portal to all federal, state and local government web resources and services.